www.pogodaiklimat.ru

АРХИВ ПОГОДЫ в Краснодаре

Время (UTC), дата Ветер
(напр.,м/с)
 
Видим.   Явления Облачность Т
(С)
Тd
(С)
f
(%)
Тe
(С)
Тes
(С)
Комфортность P
(гПа)
Po
(гПа)
Тmin
(С)
Tmax
(С)
R
(мм)
S
(см)
21 22.06 СВ 2 10 км ясно +27.2 +17.8 56 +31 +31 душно 1016.3 1012.9
00 23.06 В 1 10 км 3/0
[Ac trans]
+25.4 +18.1 64 +30 +30 душно 1015.9 1012.5
03 23.06 СВ 2 10 км 4/3 1000 м
[Sc Ci fib]
+24.6 +18.1 67 +29 +30 душно 1016.4 1012.9 +24.5
06 23.06 СВ 2 10 км ясно +30.2 +18.3 49 +35 +46 очень
душно
1016.4 1013.0
09 23.06 СВ 3 10 км 1/1 1000 м
[Cu hum]
+34.6 +17.8 37 +38 +53 опасность
солнечного
удара
1016.0 1012.6
12 23.06 СВ 3 10 км 6/5 1000 м
[Cu med, cong Ac cast]
+36.3 +16.9 32 +39 +44 очень
душно
1014.7 1011.3
15 23.06 СВ 2
{15}
10 км гроза без осадков {ливн. осадки} 10/10 600 м
[Cb cap]
+23.1 +18.2 74 +29 +29 очень
душно
1015.4 1011.9 +36.7 3
18 23.06 СВ 1 10 км {гроза, ливн. осадки} 10/8 1000 м
[Sc diur, vesp Ac trans]
+23.5 +17.0 67 +27 +27 душно 1016.4 1012.9
21 23.06 СВ 1 10 км 9/0
[Ac trans Ci fib]
+22.7 +17.2 71 +28 +28 душно 1017.1 1013.6
00 24.06 С 1 10 км 8/0
[Ci fib]
+21.1 +17.4 79 +25 +25 комфорт 1016.6 1013.1
03 24.06 В 1 10 км 8/0
[Cc]
+20.8 +17.3 80 +26 +27 душно 1016.3 1012.8 +20.4 0.3
06 24.06 СВ 2 10 км 3/0
[Ac trans]
+27.2 +17.9 57 +32 +40 очень
душно
1016.5 1013.0
09 24.06 В 4 10 км 3/3 1000 м
[Cu hum]
+30.0 +16.0 43 +33 +42 душно 1015.8 1012.4
12 24.06 СВ 3
{10}
10 км 5/5 1000 м
[Cu med, cong]
+32.0 +16.1 38 +35 +40 очень
душно
1014.3 1011.0
15 24.06 СВ 2 10 км ясно +31.2 +13.3 34 +32 +35 жарко 1014.2 1010.8 +32.6
18 24.06 С 2 10 км ясно +27.2 +14.2 45 +29 +29 жарко 1014.9 1011.4
21 24.06 СВ 2 10 км ясно +24.6 +13.6 50 +27 +27 жарко 1015.2 1011.7
00 25.06 СВ 2 10 км ясно +22.7 +13.7 57 +26 +26 жарко 1014.8 1011.3
03 25.06 СВ 2 10 км ясно +21.3 +14.3 64 +24 +25 комфорт 1015.3 1011.8 +20.9
06 25.06 СВ 3 10 км ясно +28.1 +15.7 47 +31 +40 душно 1015.4 1012.0
09 25.06 СВ 4
{10}
10 км ясно +32.4 +13.1 31 +33 +46 жарко 1015.5 1012.1
12 25.06 СВ 4-10
{11}
10 км 1/1 1000 м
[Cu hum]
+33.0 +11.7 27 +33 +41 жарко 1015.4 1012.0
15 25.06 СВ 3
{10}
10 км ясно +32.0 +12.1 30 +32 +35 жарко 1015.1 1011.7 +33.3
18 25.06 СВ 2 10 км ясно +27.7 +11.9 37 +29 +29 жарко 1015.7 1012.3
21 25.06 СВ 2 10 км ясно +24.1 +12.5 48 +26 +26 жарко 1015.6 1012.2
00 26.06 СВ 1 10 км ясно +22.6 +11.8 50 +25 +25 комфорт 1014.9 1011.4
03 26.06 В 1 10 км ясно +20.9 +12.4 58 +24 +26 комфорт 1015.1 1011.6 +20.4
06 26.06 СВ 3 10 км ясно +27.9 +14.1 43 +30 +39 жарко 1015.2 1011.8
09 26.06 СВ 4 10 км ясно +32.2 +12.7 30 +33 +46 жарко 1015.0 1011.6
12 26.06 СВ 3
{10}
10 км ясно +34.2 +12.1 26 +34 +46 очень
жарко
1013.4 1010.0
15 26.06 СВ 4
{10}
10 км ясно +32.9 +11.1 26 +33 +34 жарко 1012.1 1008.8 +34.2
18 26.06 СВ 2 10 км ясно +28.5 +12.5 37 +30 +30 жарко 1011.7 1008.3
21 26.06 СВ 2 10 км ясно +25.6 +11.9 42 +27 +27 жарко 1011.0 1007.6
00 27.06 СВ 2 10 км ясно +23.2 +11.7 48 +26 +26 жарко 1010.3 1006.8
03 27.06 СВ 2 10 км ясно +22.5 +12.6 54 +25 +26 комфорт 1010.4 1006.9 +21.7
06 27.06 В 3 10 км ясно +29.0 +14.4 41 +31 +40 жарко 1009.6 1006.2
09 27.06 В 4
{12}
10 км ясно +33.8 +13.0 28 +34 +47 очень
жарко
1007.6 1004.3
12 27.06 В 5
{11}
10 км ясно +35.4 +11.9 24 +35 +42 очень
жарко
1006.4 1003.0
15 27.06 СВ 3
{11}
10 км ясно +34.6 +12.3 26 +35 +37 очень
жарко
1004.9 1001.5 +35.7
18 27.06 СВ 2 10 км ясно +30.7 +12.6 33 +32 +32 жарко 1004.6 1001.2
21 27.06 СВ 2 10 км ясно +27.1 +13.4 43 +29 +29 жарко 1004.1 1000.7
00 28.06 В 2 10 км 1/0
[Ac trans]
+24.6 +13.9 51 +27 +27 жарко 1004.2 1000.7
03 28.06 штиль 0 10 км 9/4 1000 м
[Sc Ac cast Ci]
+24.1 +16.2 61 +27 +28 жарко 1004.4 1001.0 +23.7
06 28.06 В 1 10 км 10/5 1000 м
[Cb cap As op]
+27.8 +19.3 60 +33 +35 очень
душно
1004.1 1000.7
09 28.06 ЮВ 1 10 км в посл. час ливневой дождь 10/8 1000 м
[Cb cap Ac und]
+26.8 +20.2 67 +33 +34 очень
душно
1005.5 1002.1
12 28.06 ЮЗ 1 10 км {ливн. осадки} 10/5 1000 м
[Cb cap Ac trans Ci fib]
+27.3 +20.0 64 +33 +37 очень
душно
1004.7 1001.3
15 28.06 В 1 10 км гроза без осадков 10/8 1000 м
[Cb cap Ac trans Ci fib]
+28.6 +19.6 58 +34 +35 очень
душно
1004.3 1000.9 +29.1
18 28.06 штиль 0 10 км {гроза, ливн. осадки} 6/3 1000 м
[Sc diur, vesp Ac cast Ci fib]
+22.8 +19.9 84 +29 +29 очень
душно
1004.2 1000.8
21 28.06 СВ 1 10 км 10/3 1000 м
[Sc Ci fib]
+22.8 +20.3 86 +30 +30 очень
душно
1004.9 1001.5
00 29.06 Ю 1 10 км 5/3 1000 м
[Sc Ci fib]
+22.3 +19.9 86 +28 +28 душно 1005.4 1002.0
03 29.06 ЮВ 1 10 км 5/3 1000 м
[Sc Ci fib]
+23.9 +20.3 80 +30 +30 очень
душно
1005.7 1002.3 +21.8 0.3
06 29.06 Ю 2 10 км 8/6 1000 м
[Cu hum Cc]
+27.8 +21.1 67 +35 +39 очень
душно
1006.4 1003.0
09 29.06 Ю 4 10 км 6/4 1000 м
[Cu med, cong Ac trans Ci fib]
+30.0 +19.7 54 +36 +42 очень
душно
1007.0 1003.6
12 29.06 Ю 3
{10}
10 км 4/3 1000 м
[Cu med, cong Ac trans Ci fib]
+31.3 +17.9 45 +36 +43 очень
душно
1006.6 1003.2
15 29.06 Ю 3
{10}
10 км 8/8 1000 м
[Sc diur, vesp]
+30.2 +18.7 50 +35 +36 очень
душно
1007.5 1004.1 +31.4
18 29.06 Ю 1 10 км 5/5 1000 м
[Sc diur, vesp]
+26.0 +18.6 64 +31 +31 очень
душно
1008.4 1005.0

 

Местоположение метеостанции Краснодар (Краснодарский край, Россия): широта 45.05 долгота 39.03 высота над уровнем моря 29 м.

В архиве по умолчанию представлена погода в Краснодаре за последнюю неделю. Архивные данные за месяц целиком и за предыдущие месяцы, начиная с января 2011 года, Вы можете получить, выбрав интересующий диапазон дат из раскрывающегося списка и нажав кнопку "Ввод!".

Внимание! Время в таблицах - всемирное. Для получения местного времени необходимо прибавить поправку, которая в Krasnodar равна 3 ч.

Ветер - указаны скорость ветра в м/с - средняя за 10 мин, порывы в срок и между сроками (в фигурных скобках) и направление, откуда дует ветер: С - северный, СВ - северо-восточный, В - восточный, ЮВ - юго-восточный, Ю - южный, ЮЗ - юго-западный, З - западный, СЗ - северо-западный.
Видимость - горизонтальная дальность видимости в метрах или километрах. При видимости от 1 до 10 км при отсутствии осадков обычно наблюдается дымка, при ухудшении видимости до 1 км и менее - туман. В сухую погоду видимость может ухудшаться дымом, пылью или мглою.
Явления - указаны атмосферные явления, наблюдавшиеся в срок или в последний час перед сроком; фигурными скобками обозначены явления, наблюдавшиеся между сроками (за 1-3 часа до срока); квадратными скобками обозначены град или гололедные отложения с указанием их диаметра в мм.
Облачность - указаны через наклонную черту общая и нижняя облачность в баллах и высота нижней границы облаков в метрах; квадратными скобками обозначены формы облаков: Ci - перистые, Cs - перисто-слоистые, Cc - перисто-кучевые, Ac - высококучевые, As - высокослоистые, Sc - слоисто-кучевые, Ns - слоисто-дождевые, Cu - кучевые, Cb - кучево-дождевые. Подробнее классификацию облаков см. в Атласе облаков (PDF).
T - Температура воздуха - температура, измеренная на высоте 2 м над землей.
Td - Температура точки росы - температура, при понижении до которой содержащийся в воздухе водяной пар достигнет насыщения.
f - Относительная влажность воздуха - влажноcть воздуха, измеренная на высоте 2 м над землей.
Te - Эффективная температура - температура, которую ощущает одетый по сезону человек в тени. Характеристика душности погоды. При расчете учитывается влияние влажности воздуха и скорости ветра на теплоощущения человека.
Tes - Эффективная температура на солнце - температура, которую ощущает человек, с поправкой на солнечный нагрев. Характеристика знойности погоды. Зависит от высоты солнца над горизонтом, облачности и скорости ветра. Ночью, в пасмурную погоду, а также при ветре 12 м/с и более поправка равна нулю.
P - Атмосферное давление - приведенное к уровню моря атмосферное давление.
Po - Атмосферное давление - измеренное на уровне метеостанции атмосферное давление.
Tmin - Минимальная температура - минимум температуры воздуха на высоте 2 м над землей.
Tmax - Максимальная температура - максимум температуры воздуха на высоте 2 м над землей.
R - Количество осадков - Количество выпавших осадков, мм. При наведении курсора мыши на число - период времени, за который выпало указанное количество осадков.
S - Снежный покров - Высота снежного покрова, см. При наведении курсора мыши на число - состояние снежного покрова и степень покрытия местности в баллах.